Regional Weather Roundup
Issued by NWS

Home | Current Version | Previous Version | Graphics & Text | Print | Product List | Glossary On
Versions: 1 2 3 4 5 6 7 8 9 10 11 12 13 14 15 16 17 18 19 20 21 22 23 24 25 26 27 28 29 30 31 32 33 34 35 36 37 38 39 40 41 42 43 44 45 46 47 48 49 50
000
ASUS45 KBOU 011507
RWRCO

WEATHER ROUNDUP FOR COLORADO
NATIONAL WEATHER SERVICE DENVER/BOULDER CO
800 AM MST SUN FEB 01 2015

NOTE: "FAIR" INDICATES FEW OR NO CLOUDS BELOW 12000 FEET WITH NO
SIGNIFICANT WEATHER AND/OR OBSTRUCTIONS TO VISIBILITY.

COZ001>005-013-030-031-011600-
...NORTHWEST COLORADO...

CITY           SKY/WX    TMP DP  RH WIND       PRES   REMARKS
CRAIG          CLOUDY    17  14  88 CALM      30.15R
HAYDEN         CLOUDY    18  12  79 NE3       30.12R
MEEKER         CLOUDY    16  11  80 E6        30.15R WCI   7
MOUNT WERNER   NOT AVBL
STEAMBOAT SPGS MOCLDY    11   9  91 CALM      30.11R
WALDEN         MOCLDY    10   7  85 N8        30.04R WCI  -1
$$

COZ006>008-011-011600-
...WEST CENTRAL VALLEYS...

CITY           SKY/WX    TMP DP  RH WIND       PRES   REMARKS
GRAND JUNCTION MOCLDY    29  28  96 CALM      30.16R
MONTROSE       CLEAR     27  22  81 SE7       30.18R WCI  19
EAGLE          MOCLDY    19  16  86 VRB5      30.16R WCI  13
RIFLE          PTCLDY    21  18  88 CALM      30.17R
DELTA          PTCLDY    33  32  96 CALM      30.18R
NUCLA          CLEAR     27  23  86 E5        30.20R WCI  21
$$

COZ017>023-064>068-011600-
...SOUTHWEST COLORADO...

CITY           SKY/WX    TMP DP  RH WIND       PRES   REMARKS
DURANGO        CLOUDY    28  28 100 W3        30.09R
CORTEZ         CLEAR     25  21  85 S5        30.11R WCI  19
PAGOSA SPRINGS CLOUDY    27  27  99 CALM      30.09R
TELLURIDE      PTCLDY    20  -1  38 SE5       30.15R WCI  14
WOLF CREEK PAS   N/A     14  -8  37 N17G31    30.08R WCI  -3
$$

COZ009-010-012-014-032>034-037-058>063-011600-
...CENTRAL COLORADO...

CITY           SKY/WX    TMP DP  RH WIND       PRES   REMARKS
ASPEN          CLOUDY    15   8  73 S5        30.11R WCI   8
BUENA VISTA    CLEAR     20   6  54 E3        30.02R
COPPER MTN     CLOUDY     9   1  72 W25       29.96R WCI -13
BERTHOUD PASS  FAIR       0  -6  78 NW39G55   29.84R HAZE    WCI -29
COTTONWOOD PAS CLEAR     23  -9  23 NW9G26    29.96R WCI  13
GUNNISON       PTCLDY    12  -2  52 CALM      30.12R
KREMMLING      PTCLDY    14   9  79 N5        30.09S WCI   6
LEADVILLE      CLOUDY    13   2  61 NW21G29   30.01R WCI  -5
SALIDA         CLEAR     18  13  79 CALM      30.10S
SUNLIGHT       PTCLDY   N/A N/A N/A CALM        N/A
WILKERSON PASS PTCLDY    10  -4  52 NW15G36   29.96R WCI  -6
$$

COZ069>075-011600-
...SAN LUIS VALLEY/SANGRE DE CRISTO MOUNTAINS...

CITY           SKY/WX    TMP DP  RH WIND       PRES   REMARKS
ALAMOSA        PTCLDY    16  13  88 S7        30.06R WCI   6
LA VETA PASS   PTCLDY    16  12  86 MISG      30.01R
SAGUACHE       PTCLDY    21   9  58 N5        30.06R WCI  15
$$

COZ035-036-038>040-011600-
...NORTHERN COLORADO FRONT RANGE...

CITY           SKY/WX    TMP DP  RH WIND       PRES   REMARKS
DENVER INTL AP CLOUDY    20  16  84 NE10      30.12R WCI   9
DMNS CITY PARK   N/A     20  19  95 E6        30.13R WCI  12
AURORA         CLOUDY    17  15  93 E7        30.12R WCI   8
FRONT RANGE AP CLOUDY    21  19  93 NE7       30.13  WCI  13
ERIE MUNI ARPT CLOUDY    23  19  85 CALM      30.14R
BOULDER MUN AP CLOUDY    23  19  86 NE3       30.13R
CENTENNIAL     MOCLDY    18  15  88 E7        30.09R WCI   9
BROOMFIELD     CLOUDY    21  18  86 E3        30.12R
FORT COLLINS   PTCLDY    21  16  79 S6        30.15R WCI  14
LONGMONT       CLOUDY    25  18  74 S3        30.16R
$$

COZ041-046-047-076>085-087-088-011600-
...PIKES PEAK/PALMER DIVIDE AND SOUTHERN FOOTHILLS...

CITY           SKY/WX    TMP DP  RH WIND       PRES   REMARKS
COLO. SPRINGS  PTCLDY    21  12  68 VRB7      30.06R WCI  12
A. F. ACADEMY  PTCLDY    16  11  82 N5        30.04R WCI   9
ELLICOTT       CLEAR    N/A N/A N/A N12         N/A
FALCON         CLEAR     17  11  76 N12       30.04R WCI   5
FORT CARSON    CLEAR     22  16  76 N10       30.06R WCI  11
LIMON          LGT SNOW  18  14  84 N10       30.11R FOG     WCI   6
MONUMENT HILL  FOG       12  10  92 N5        30.03S VSB 1   WCI   4
TRINIDAD       LGT SNOW  26  23  88 E5        30.11R FOG     WCI  20
$$

COZ042>045-048>051-090-091-011600-
...NORTHEAST COLORADO...

CITY           SKY/WX    TMP DP  RH WIND       PRES   REMARKS
GREELEY ARPT   MOCLDY    23  10  58 NE9       30.14R WCI  13
AKRON          CLOUDY    19  14  81 N20G28    30.12R WCI   3
BURLINGTON     MOSUNNY   20  14  77 N25G33    30.12R WCI   2
WRAY           MOCLDY    16  12  83 MISG      30.20R
STERLING       MOCLDY    23  14  68 N17G26    30.16R WCI   9
HOLYOKE        NOT AVBL
FORT MORGAN    CLOUDY    22  15  75 N9        30.17R WCI  11
$$

COZ086-089-092>099-011600-
...SOUTHEAST COLORADO...

CITY           SKY/WX    TMP DP  RH WIND       PRES   REMARKS
PUEBLO         PTCLDY    25  18  74 SE7       30.12R WCI  17
LA JUNTA       CLEAR     29  19  66 N8        30.14R WCI  21
LAMAR          PTSUNNY   28  21  75 N13G22    30.12R WCI  17
SPRINGFIELD      N/A     25  20  81 N18       30.11R WCI  11
$$



USA.gov is the U.S. government's official web portal to all federal, state and local government web resources and services.